TimeCDT,TemperatureF,Dew PointF,Humidity,Sea Level PressureIn,VisibilityMPH,Wind Direction,Wind SpeedMPH,Gust SpeedMPH,PrecipitationIn,Events,Conditions,WindDirDegrees,DateUTC
12:13 AM,26.6,23.0,86,30.25,10.0,West,5.8,-,N/A,,Clear,270,2012-10-12 05:13:00
12:34 AM,26.6,23.0,86,30.26,10.0,WNW,8.1,-,N/A,,Clear,290,2012-10-12 05:34:00
12:54 AM,28.4,23.0,80,30.26,10.0,WNW,6.9,-,N/A,,Clear,290,2012-10-12 05:54:00
1:13 AM,28.4,23.0,80,30.27,10.0,West,5.8,-,N/A,,Clear,280,2012-10-12 06:13:00
1:34 AM,28.4,23.0,80,30.28,10.0,WNW,6.9,-,N/A,,Scattered Clouds,300,2012-10-12 06:34:00
1:54 AM,28.4,21.2,74,30.28,10.0,WNW,5.8,-,N/A,,Mostly Cloudy,300,2012-10-12 06:54:00
2:14 AM,28.4,21.2,74,30.29,10.0,WNW,4.6,-,N/A,,Mostly Cloudy,290,2012-10-12 07:14:00
2:34 AM,28.4,21.2,74,30.29,10.0,WNW,3.5,-,N/A,,Scattered Clouds,290,2012-10-12 07:34:00
2:53 AM,26.6,21.2,80,30.29,10.0,WNW,5.8,-,N/A,,Scattered Clouds,300,2012-10-12 07:53:00
3:14 AM,26.6,19.4,74,30.29,10.0,NW,5.8,-,N/A,,Clear,310,2012-10-12 08:14:00
3:33 AM,26.6,19.4,74,30.30,10.0,NW,4.6,-,N/A,,Clear,310,2012-10-12 08:33:00
3:54 AM,26.6,19.4,74,30.30,10.0,WNW,9.2,-,N/A,,Clear,300,2012-10-12 08:54:00
4:14 AM,26.6,19.4,74,30.30,10.0,NW,10.4,-,N/A,,Clear,310,2012-10-12 09:14:00
4:33 AM,26.6,19.4,74,30.31,10.0,NW,9.2,-,N/A,,Clear,310,2012-10-12 09:33:00
4:54 AM,26.6,19.4,74,30.31,10.0,NW,10.4,16.1,N/A,,Clear,320,2012-10-12 09:54:00
5:14 AM,26.6,19.4,74,30.30,10.0,NW,16.1,20.7,N/A,,Clear,320,2012-10-12 10:14:00
5:53 AM,26.6,19.4,74,30.31,10.0,NW,15.0,23.0,N/A,,Clear,320,2012-10-12 10:53:00
6:14 AM,24.8,19.4,80,30.33,10.0,NW,9.2,16.1,N/A,,Clear,320,2012-10-12 11:14:00
6:33 AM,24.8,19.4,80,30.34,10.0,Calm,Calm,-,N/A,,Clear,0,2012-10-12 11:33:00
6:54 AM,24.8,19.4,80,30.34,10.0,Calm,Calm,-,N/A,,Clear,0,2012-10-12 11:54:00
7:13 AM,23.0,19.4,86,30.34,10.0,NW,4.6,-,N/A,,Clear,310,2012-10-12 12:13:00
7:34 AM,23.0,17.6,80,30.34,10.0,NW,6.9,-,N/A,,Clear,320,2012-10-12 12:34:00
7:53 AM,24.8,17.6,74,30.35,10.0,Calm,Calm,-,N/A,,Clear,0,2012-10-12 12:53:00
8:14 AM,26.6,19.4,74,30.35,10.0,WNW,3.5,-,N/A,,Clear,290,2012-10-12 13:14:00
8:34 AM,28.4,19.4,69,30.36,10.0,Calm,Calm,-,N/A,,Clear,0,2012-10-12 13:34:00
9:14 AM,30.2,19.4,64,30.36,10.0,Calm,Calm,-,N/A,,Clear,0,2012-10-12 14:14:00
9:34 AM,32.0,17.6,55,30.36,10.0,Calm,Calm,-,N/A,,Clear,0,2012-10-12 14:34:00
9:53 AM,33.8,17.6,52,30.36,10.0,Calm,Calm,-,N/A,,Clear,0,2012-10-12 14:53:00
10:14 AM,33.8,15.8,48,30.36,10.0,SE,4.6,-,N/A,,Clear,130,2012-10-12 15:14:00
10:34 AM,35.6,17.6,48,30.36,10.0,SSE,3.5,-,N/A,,Clear,150,2012-10-12 15:34:00
10:54 AM,35.6,17.6,48,30.34,10.0,SSE,6.9,-,N/A,,Clear,150,2012-10-12 15:54:00
11:14 AM,35.6,15.8,44,30.35,10.0,SSE,8.1,-,N/A,,Clear,160,2012-10-12 16:14:00
11:34 AM,35.6,15.8,44,30.35,10.0,SSE,6.9,-,N/A,,Clear,160,2012-10-12 16:34:00
11:53 AM,35.6,15.8,44,30.34,10.0,SSE,6.9,-,N/A,,Clear,150,2012-10-12 16:53:00
12:14 PM,35.6,15.8,44,30.34,10.0,SSE,8.1,-,N/A,,Clear,150,2012-10-12 17:14:00
12:34 PM,35.6,15.8,44,30.33,10.0,South,6.9,-,N/A,,Clear,180,2012-10-12 17:34:00
12:54 PM,35.6,15.8,44,30.32,10.0,SSE,8.1,-,N/A,,Clear,160,2012-10-12 17:54:00
1:34 PM,37.4,19.4,48,30.31,10.0,South,6.9,-,N/A,,Clear,180,2012-10-12 18:34:00
1:54 PM,37.4,17.6,45,30.30,10.0,South,9.2,-,N/A,,Clear,190,2012-10-12 18:54:00
2:13 PM,37.4,19.4,48,30.29,10.0,South,9.2,-,N/A,,Clear,170,2012-10-12 19:13:00
2:34 PM,35.6,19.4,52,30.29,10.0,South,10.4,-,N/A,,Clear,190,2012-10-12 19:34:00
2:54 PM,35.6,19.4,52,30.28,10.0,South,10.4,-,N/A,,Clear,190,2012-10-12 19:54:00
3:13 PM,33.8,17.6,52,30.27,10.0,South,8.1,-,N/A,,Clear,180,2012-10-12 20:13:00
3:34 PM,33.8,17.6,52,30.26,10.0,South,6.9,-,N/A,,Clear,170,2012-10-12 20:34:00
3:54 PM,33.8,17.6,52,30.25,10.0,SSE,6.9,-,N/A,,Clear,150,2012-10-12 20:54:00
4:13 PM,35.6,15.8,44,30.25,10.0,South,5.8,-,N/A,,Clear,170,2012-10-12 21:13:00
4:34 PM,33.8,15.8,48,30.24,10.0,South,4.6,-,N/A,,Clear,180,2012-10-12 21:34:00
5:14 PM,33.8,19.4,56,30.22,10.0,South,4.6,-,N/A,,Clear,170,2012-10-12 22:14:00
5:53 PM,30.2,19.4,64,30.19,10.0,SE,3.5,-,N/A,,Clear,140,2012-10-12 22:53:00
6:14 PM,30.2,21.2,69,30.19,10.0,SE,3.5,-,N/A,,Clear,140,2012-10-12 23:14:00
6:34 PM,30.2,21.2,69,30.18,10.0,Calm,Calm,-,N/A,,Clear,0,2012-10-12 23:34:00
6:53 PM,30.2,19.4,64,30.18,10.0,Calm,Calm,-,N/A,,Clear,0,2012-10-12 23:53:00
7:14 PM,30.2,21.2,69,30.17,10.0,ESE,3.5,-,N/A,,Mostly Cloudy,110,2012-10-13 00:14:00
7:34 PM,30.2,21.2,69,30.16,10.0,ESE,3.5,-,N/A,,Overcast,120,2012-10-13 00:34:00
7:53 PM,30.2,21.2,69,30.16,10.0,SE,3.5,-,N/A,,Overcast,130,2012-10-13 00:53:00
8:14 PM,30.2,21.2,69,30.15,10.0,SE,3.5,-,N/A,,Overcast,130,2012-10-13 01:14:00
8:33 PM,30.2,21.2,69,30.14,10.0,ESE,4.6,-,N/A,,Overcast,120,2012-10-13 01:33:00
8:54 PM,30.2,21.2,69,30.13,10.0,SE,5.8,-,N/A,,Overcast,130,2012-10-13 01:54:00
9:02 PM,30.2,21.2,69,30.13,10.0,SE,3.5,-,N/A,,Overcast,140,2012-10-13 02:02:00
9:34 PM,32.0,21.2,64,30.12,10.0,SE,4.6,-,N/A,,Overcast,140,2012-10-13 02:34:00
9:53 PM,32.0,23.0,69,30.11,10.0,SE,5.8,-,N/A,,Overcast,140,2012-10-13 02:53:00
10:13 PM,33.8,24.8,70,30.10,10.0,SE,5.8,-,N/A,,Overcast,140,2012-10-13 03:13:00
10:34 PM,33.8,24.8,70,30.09,10.0,SE,4.6,-,N/A,,Overcast,130,2012-10-13 03:34:00
10:54 PM,33.8,26.6,75,30.08,10.0,SE,4.6,-,N/A,,Overcast,130,2012-10-13 03:54:00
11:13 PM,33.8,26.6,75,30.07,10.0,SE,3.5,-,N/A,,Overcast,130,2012-10-13 04:13:00
11:34 PM,33.8,26.6,75,30.06,10.0,ESE,3.5,-,N/A,,Overcast,120,2012-10-13 04:34:00
11:54 PM,33.8,28.4,81,30.05,10.0,ESE,4.6,-,N/A,,Overcast,120,2012-10-13 04:54:00